Rabat-Sale, Morocco

3:25 PM WEST on April 24, 2017 (GMT +0100)
Sale

Weather History for GMME - September, 2013

Change the Weather History Date:

Thursday, September 5, 2013

  Actual Average Record
Temperature  
Mean Temperature 75 °F -  
Max Temperature 79 °F 76 °F 98 °F (2006)
Min Temperature 71 °F 60 °F 57 °F (2011)
Cooling Degree Days 10    
Growing Degree Days 25 (Base 50)    
Moisture  
Dew Point 62 °F    
Average Humidity 65    
Maximum Humidity 78    
Minimum Humidity 48    
Precipitation  
Precipitation 0.00 in 0.02 in - ()
Sea Level Pressure  
Sea Level Pressure 29.96 in    
Wind  
Wind Speed 8 mph ()    
Max Wind Speed 13 mph    
Max Gust Speed -    
Visibility 4.4 miles    
Events      
Averages and records for this station are not official NWS values.
T = Trace of Precipitation, MM = Missing Value Source: Averaged Metar Reports

Daily Weather History Graph

Daily Weather History Graph

Search for Another Location

Airport or City:

Trip Planner

Search our weather history database for the weather conditions in past years. The results will help you decide how hot, cold, wet, or windy it might be!

Date:

Astronomy

Sep. 05, 2013 Rise Set
Actual Time 7:03 AM WEST 7:47 PM WEST
Civil Twilight 6:38 AM WEST 8:12 PM WEST
Nautical Twilight 6:08 AM WEST 8:42 PM WEST
Astronomical Twilight 5:37 AM WEST 9:13 PM WEST
Moon 6:59 AM WEST (9/5) 7:35 PM WEST (9/5)
Length of Visible Light 13h 34m
Length of Day
12h 44m
Waning Crescent, 0% of the Moon is Illuminated
Sep 5
Waning Crescent
Sep 5
New
Sep 12
First Quarter
Sep 19
Full
Sep 27
Last Quarter

Hourly Weather History & Observations

Time (WEST) Temp. Dew Point Humidity Pressure Visibility Wind Dir Wind Speed Gust Speed Precip Events Conditions
12:00 AM 73.4 °F 64.4 °F 73% 29.98 in 3.1 mi WSW 10.4 mph - N/A   Mostly Cloudy
12:30 AM 73.4 °F 64.4 °F 73% 29.98 in 3.1 mi WSW 12.7 mph - N/A   Mostly Cloudy
1:00 AM 73 °F 64 °F 67% 29.98 in 3 mi WSW 11.5 mph - -   Mostly Cloudy
1:00 AM 73.4 °F 64.4 °F 73% 29.98 in 3.1 mi WSW 11.5 mph - N/A   Mostly Cloudy
1:30 AM 73.4 °F 64.4 °F 73% 29.98 in 3.1 mi WSW 10.4 mph - N/A   Mostly Cloudy
2:00 AM 73.4 °F 64.4 °F 73% 29.95 in 3.1 mi WSW 10.4 mph - N/A   Mostly Cloudy
2:30 AM 73.4 °F 64.4 °F 73% 29.95 in - WSW 9.2 mph - N/A   Unknown
3:00 AM 73.4 °F 62.6 °F 69% 29.95 in 3.1 mi WSW 9.2 mph - N/A   Mostly Cloudy
3:30 AM 73.4 °F 64.4 °F 73% 29.95 in 3.1 mi SW 8.1 mph - N/A   Mostly Cloudy
4:00 AM 73 °F 63 °F 64% 29.95 in 3 mi WSW 9.2 mph - -   Mostly Cloudy
4:00 AM 73.4 °F 62.6 °F 69% 29.95 in 3.1 mi WSW 9.2 mph - N/A   Mostly Cloudy
4:30 AM 73.4 °F 62.6 °F 69% 29.95 in - WSW 8.1 mph - N/A   Unknown
5:00 AM 73.4 °F 62.6 °F 69% 29.95 in 3.1 mi WSW 5.8 mph - N/A   Mostly Cloudy
5:30 AM 73.4 °F 64.4 °F 73% 29.95 in 3.1 mi WSW 8.1 mph - N/A   Mostly Cloudy
6:00 AM 71.6 °F 60.8 °F 69% 29.95 in 3.1 mi WSW 6.9 mph - N/A   Mostly Cloudy
6:30 AM 71.6 °F 64.4 °F 78% 29.95 in 3.1 mi WSW 4.6 mph - N/A   Mostly Cloudy
7:00 AM 72 °F 64 °F 68% 29.95 in 3 mi WSW 6.9 mph - -   Mostly Cloudy
7:00 AM 71.6 °F 64.4 °F 78% 29.95 in 3.1 mi WSW 6.9 mph - N/A   Mostly Cloudy
7:30 AM 73.4 °F 64.4 °F 73% 29.95 in 3.1 mi WSW 4.6 mph - N/A   Mostly Cloudy
8:00 AM 73.4 °F 60.8 °F 65% 29.95 in 5.0 mi WSW 6.9 mph - N/A   Mostly Cloudy
8:30 AM 73.4 °F 60.8 °F 65% 29.98 in 5.0 mi West 6.9 mph - N/A   Mostly Cloudy
9:00 AM 75.2 °F 60.8 °F 61% 29.98 in 5.0 mi WSW 8.1 mph - N/A   Mostly Cloudy
9:30 AM 75.2 °F 60.8 °F 61% 29.98 in 5.0 mi SW 6.9 mph - N/A   Mostly Cloudy
10:00 AM 76 °F 60 °F 48% 29.98 in 5 mi West 8.1 mph - -   Mostly Cloudy
10:00 AM 75.2 °F 60.8 °F 61% 29.98 in 5.0 mi West 8.1 mph - N/A   Mostly Cloudy
10:30 AM 77.0 °F 59.0 °F 54% 29.98 in 5.0 mi WSW 9.2 mph - N/A   Mostly Cloudy
11:00 AM 77.0 °F 62.6 °F 61% 29.98 in 5.0 mi West 9.2 mph - N/A   Mostly Cloudy
11:30 AM 77.0 °F 62.6 °F 61% 29.98 in 5.0 mi WNW 9.2 mph - N/A   Mostly Cloudy
12:00 PM 78.8 °F 60.8 °F 54% 29.98 in 5.0 mi WNW 11.5 mph - N/A   Scattered Clouds
12:30 PM 77.0 °F 60.8 °F 57% 29.98 in 5.0 mi WNW 10.4 mph - N/A   Scattered Clouds
1:00 PM 78 °F 62 °F 48% 29.97 in 5 mi West 10.4 mph - -   Partly Cloudy
1:00 PM 78.8 °F 62.6 °F 57% 29.98 in 5.0 mi West 10.4 mph - N/A   Scattered Clouds
1:30 PM 78.8 °F 60.8 °F 54% 29.98 in 5.0 mi WNW 10.4 mph - N/A   Scattered Clouds
2:00 PM 78.8 °F 60.8 °F 54% 29.98 in 5.0 mi West 10.4 mph - N/A   Scattered Clouds
2:30 PM 78.8 °F 60.8 °F 54% 29.95 in 5.0 mi WNW 10.4 mph - N/A   Scattered Clouds
3:00 PM 78.8 °F 60.8 °F 54% 29.95 in 5.0 mi NW 10.4 mph - N/A   Scattered Clouds
3:30 PM 77.0 °F 59.0 °F 54% 29.95 in 5.0 mi WNW 11.5 mph - N/A   Scattered Clouds
4:00 PM 78 °F 62 °F 49% 29.94 in 5 mi NW 11.5 mph - -   Partly Cloudy
4:00 PM 77.0 °F 62.6 °F 61% 29.95 in 5.0 mi NW 11.5 mph - N/A   Scattered Clouds
4:30 PM 77.0 °F 62.6 °F 61% 29.95 in 5.0 mi WNW 11.5 mph - N/A   Scattered Clouds
5:00 PM 77.0 °F 60.8 °F 57% 29.95 in 5.0 mi WNW 10.4 mph - N/A   Scattered Clouds
5:30 PM 77.0 °F 62.6 °F 61% 29.95 in 5.0 mi NW 10.4 mph - N/A   Scattered Clouds
6:00 PM 75.2 °F 62.6 °F 65% 29.92 in 5.0 mi NW 9.2 mph - N/A   Scattered Clouds
6:30 PM 75.2 °F 62.6 °F 65% 29.92 in 5.0 mi NW 9.2 mph - N/A   Mostly Cloudy
7:00 PM 74 °F 63 °F 60% 29.94 in 5 mi NW 8.1 mph - -   Mostly Cloudy
7:00 PM 73.4 °F 62.6 °F 69% 29.95 in 5.0 mi NW 8.1 mph - N/A   Mostly Cloudy
7:30 PM 73.4 °F 62.6 °F 69% 29.95 in 5.0 mi NW 8.1 mph - N/A   Mostly Cloudy
8:00 PM 73.4 °F 64.4 °F 73% 29.95 in 5.0 mi NNW 6.9 mph - N/A   Mostly Cloudy
8:30 PM 73.4 °F 62.6 °F 69% 29.95 in 5.0 mi NW 5.8 mph - N/A   Mostly Cloudy
9:00 PM 71.6 °F 62.6 °F 73% 29.95 in 5.6 mi NW 4.6 mph - N/A   Mostly Cloudy
9:30 PM 73.4 °F 62.6 °F 69% 29.98 in 5.0 mi Calm Calm - N/A   Mostly Cloudy
10:00 PM 72 °F 63 °F 66% 29.98 in 5 mi Calm Calm - -   Mostly Cloudy
10:00 PM 73.4 °F 62.6 °F 69% 29.98 in 5.0 mi Calm Calm - N/A   Mostly Cloudy
10:30 PM 71.6 °F 62.6 °F 73% 29.98 in 5.0 mi Calm Calm - N/A   Mostly Cloudy
11:00 PM 71.6 °F 62.6 °F 73% 29.98 in 5.0 mi Calm Calm - N/A   Mostly Cloudy
11:30 PM 71.6 °F 62.6 °F 73% 29.98 in 5.0 mi Calm Calm - N/A   Mostly Cloudy